Time,TemperatureF,DewpointF,PressureIn,WindDirection,WindDirectionDegrees,WindSpeedMPH,WindSpeedGustMPH,Humidity,HourlyPrecipIn,Conditions,Clouds,dailyrainin,SoftwareType,DateUTC
2013-04-08 00:00:00,67.5,62.2,29.81,SSE,159,0.0,11.0,83,0.00,,SKC,0.00,VWS V14.01,2013-04-08 05:00:00,
2013-04-08 00:02:00,67.5,62.2,29.81,SSE,159,0.0,8.0,83,0.00,,SKC,0.00,VWS V14.01,2013-04-08 05:02:00,
2013-04-08 00:07:00,67.5,62.2,29.81,SSE,164,6.0,6.0,83,0.00,,SKC,0.00,VWS V14.01,2013-04-08 05:07:00,
2013-04-08 00:10:00,67.5,62.2,29.81,SSE,161,0.0,8.0,83,0.00,,SKC,0.00,VWS V14.01,2013-04-08 05:10:00,
2013-04-08 00:12:00,67.4,62.1,29.81,South,170,11.0,12.0,83,0.00,,SKC,0.00,VWS V14.01,2013-04-08 05:12:00,
2013-04-08 00:16:00,67.4,62.1,29.81,SSE,165,0.0,0.0,83,0.00,,SKC,0.00,VWS V14.01,2013-04-08 05:16:00,
2013-04-08 00:20:00,67.5,62.2,29.81,SSE,165,0.0,12.0,83,0.00,,SKC,0.00,VWS V14.01,2013-04-08 05:20:00,
2013-04-08 00:21:00,67.4,62.1,29.81,SSE,161,2.0,8.0,83,0.00,,SKC,0.00,VWS V14.01,2013-04-08 05:21:00,
2013-04-08 00:27:00,67.4,62.1,29.81,SSE,165,0.0,0.0,83,0.00,,SKC,0.00,VWS V14.01,2013-04-08 05:27:00,
2013-04-08 00:30:00,67.4,62.1,29.81,SSE,165,0.0,10.0,83,0.00,,SKC,0.00,VWS V14.01,2013-04-08 05:30:00,
2013-04-08 00:32:00,67.4,62.1,29.81,SSE,165,0.0,13.0,83,0.00,,SKC,0.00,VWS V14.01,2013-04-08 05:32:00,
2013-04-08 00:37:00,67.4,62.1,29.81,SSE,167,5.0,5.0,83,0.00,,SKC,0.00,VWS V14.01,2013-04-08 05:37:00,
2013-04-08 00:40:00,67.4,62.1,29.81,SSE,167,0.0,13.0,83,0.00,,SKC,0.00,VWS V14.01,2013-04-08 05:40:00,
2013-04-08 00:42:00,67.4,62.1,29.81,SSE,167,0.0,8.0,83,0.00,,SKC,0.00,VWS V14.01,2013-04-08 05:42:00,
2013-04-08 00:47:00,67.4,62.1,29.81,SSE,165,9.0,9.0,83,0.00,,SKC,0.00,VWS V14.01,2013-04-08 05:47:00,
2013-04-08 00:50:00,67.4,62.1,29.81,SSE,164,0.0,10.0,83,0.00,,SKC,0.00,VWS V14.01,2013-04-08 05:50:00,
2013-04-08 00:52:00,67.3,62.0,29.81,SSE,165,9.0,9.0,83,0.00,,SKC,0.00,VWS V14.01,2013-04-08 05:52:00,
2013-04-08 00:57:00,67.4,62.1,29.81,SSE,165,0.0,0.0,83,0.00,,SKC,0.00,VWS V14.01,2013-04-08 05:57:00,
2013-04-08 01:00:00,67.4,62.1,29.81,SSE,165,0.0,9.0,83,0.00,,SKC,0.00,VWS V14.01,2013-04-08 06:00:00,
2013-04-08 01:02:00,67.4,62.1,29.81,SSE,163,3.0,7.0,83,0.00,,SKC,0.00,VWS V14.01,2013-04-08 06:02:00,
2013-04-08 01:07:00,67.3,62.0,29.81,SSE,161,0.0,9.0,83,0.00,,SKC,0.00,VWS V14.01,2013-04-08 06:07:00,
2013-04-08 01:10:00,67.3,62.0,29.81,SSE,163,0.0,9.0,83,0.00,,SKC,0.00,VWS V14.01,2013-04-08 06:10:00,
2013-04-08 01:12:00,67.4,62.1,29.81,SSE,162,0.0,9.0,83,0.00,,SKC,0.00,VWS V14.01,2013-04-08 06:12:00,
2013-04-08 01:17:00,67.3,62.0,29.81,SSE,161,0.0,4.0,83,0.00,,SKC,0.00,VWS V14.01,2013-04-08 06:17:00,
2013-04-08 01:20:00,67.3,62.0,29.81,SSE,161,4.0,9.0,83,0.00,,SKC,0.00,VWS V14.01,2013-04-08 06:20:00,
2013-04-08 01:22:00,67.3,62.0,29.81,SSE,163,0.0,7.0,83,0.00,,SKC,0.00,VWS V14.01,2013-04-08 06:22:00,
2013-04-08 01:27:00,67.3,62.3,29.81,SSE,163,0.0,0.0,84,0.00,,SKC,0.00,VWS V14.01,2013-04-08 06:27:00,
2013-04-08 01:30:00,67.3,62.3,29.81,SSE,163,0.0,9.0,84,0.00,,SKC,0.00,VWS V14.01,2013-04-08 06:30:00,
2013-04-08 01:32:00,67.3,62.3,29.80,SSE,165,0.0,8.0,84,0.00,,SKC,0.00,VWS V14.01,2013-04-08 06:32:00,
2013-04-08 01:37:00,67.2,62.2,29.81,SSE,165,4.0,4.0,84,0.00,,SKC,0.00,VWS V14.01,2013-04-08 06:37:00,
2013-04-08 01:40:00,67.3,62.3,29.80,SSE,165,0.0,8.0,84,0.00,,SKC,0.00,VWS V14.01,2013-04-08 06:40:00,
2013-04-08 01:42:00,67.2,62.2,29.80,SSE,164,0.0,8.0,84,0.00,,SKC,0.00,VWS V14.01,2013-04-08 06:42:00,
2013-04-08 01:47:00,67.2,62.2,29.80,SSE,164,0.0,0.0,84,0.00,,SKC,0.00,VWS V14.01,2013-04-08 06:47:00,
2013-04-08 01:50:00,67.2,62.2,29.80,SSE,164,0.0,8.0,84,0.00,,SKC,0.00,VWS V14.01,2013-04-08 06:50:00,
2013-04-08 01:52:00,67.2,62.2,29.80,SSE,164,0.0,4.0,84,0.00,,SKC,0.00,VWS V14.01,2013-04-08 06:52:00,
2013-04-08 01:57:00,67.2,62.2,29.80,SSE,164,0.0,0.0,84,0.00,,SKC,0.00,VWS V14.01,2013-04-08 06:57:00,
2013-04-08 02:00:00,67.2,62.2,29.80,SSE,164,0.0,4.0,84,0.00,,SKC,0.00,VWS V14.01,2013-04-08 07:00:00,
2013-04-08 02:02:00,67.1,62.5,29.80,SSE,164,0.0,0.0,85,0.00,,SKC,0.00,VWS V14.01,2013-04-08 07:02:00,
2013-04-08 02:07:00,67.1,62.5,29.80,SSE,164,0.0,0.0,85,0.00,,SKC,0.00,VWS V14.01,2013-04-08 07:07:00,
2013-04-08 02:10:00,67.1,62.5,29.80,SSE,164,0.0,0.0,85,0.00,,SKC,0.00,VWS V14.01,2013-04-08 07:10:00,
2013-04-08 02:12:00,67.1,62.5,29.80,SSE,164,0.0,2.0,85,0.00,,SKC,0.00,VWS V14.01,2013-04-08 07:12:00,
2013-04-08 02:17:00,67.1,62.5,29.80,SSE,164,0.0,0.0,85,0.00,,SKC,0.00,VWS V14.01,2013-04-08 07:17:00,
2013-04-08 02:20:00,67.1,62.5,29.80,SSE,164,0.0,2.0,85,0.00,,SKC,0.00,VWS V14.01,2013-04-08 07:20:00,
2013-04-08 02:22:00,67.0,62.3,29.79,SSE,164,0.0,3.0,85,0.00,,SKC,0.00,VWS V14.01,2013-04-08 07:22:00,
2013-04-08 02:27:00,67.0,62.3,29.79,SSE,164,0.0,0.0,85,0.00,,SKC,0.00,VWS V14.01,2013-04-08 07:27:00,
2013-04-08 02:30:00,67.0,62.3,29.79,SSE,164,0.0,3.0,85,0.00,,SKC,0.00,VWS V14.01,2013-04-08 07:30:00,
2013-04-08 02:32:00,67.0,62.7,29.79,SSE,164,0.0,0.0,86,0.00,,SKC,0.00,VWS V14.01,2013-04-08 07:32:00,
2013-04-08 02:37:00,66.9,62.6,29.78,SSE,164,0.0,0.0,86,0.00,,SKC,0.00,VWS V14.01,2013-04-08 07:37:00,
2013-04-08 02:40:00,66.9,62.6,29.78,SSE,164,0.0,0.0,86,0.00,,SKC,0.00,VWS V14.01,2013-04-08 07:40:00,
2013-04-08 02:42:00,66.9,62.6,29.78,SSE,164,0.0,0.0,86,0.00,,SKC,0.00,VWS V14.01,2013-04-08 07:42:00,
2013-04-08 02:47:00,66.9,62.6,29.78,SSE,164,0.0,0.0,86,0.00,,SKC,0.00,VWS V14.01,2013-04-08 07:47:00,
2013-04-08 02:50:00,66.9,62.6,29.78,SSE,164,0.0,0.0,86,0.00,,SKC,0.00,VWS V14.01,2013-04-08 07:50:00,
2013-04-08 02:52:00,66.8,62.5,29.77,SSE,164,0.0,0.0,86,0.00,,SKC,0.00,VWS V14.01,2013-04-08 07:52:00,
2013-04-08 02:57:00,66.8,62.5,29.77,SSE,164,0.0,0.0,86,0.00,,SKC,0.00,VWS V14.01,2013-04-08 07:57:00,
2013-04-08 03:00:00,66.8,62.5,29.77,SSE,164,0.0,0.0,86,0.00,,SKC,0.00,VWS V14.01,2013-04-08 08:00:00,
2013-04-08 03:02:00,66.8,62.5,29.77,SSE,164,0.0,0.0,86,0.00,,SKC,0.00,VWS V14.01,2013-04-08 08:02:00,
2013-04-08 03:07:00,66.8,62.5,29.77,SSE,164,0.0,0.0,86,0.00,,SKC,0.00,VWS V14.01,2013-04-08 08:07:00,
2013-04-08 03:10:00,66.8,62.5,29.77,SSE,164,0.0,0.0,86,0.00,,SKC,0.00,VWS V14.01,2013-04-08 08:10:00,
2013-04-08 03:12:00,66.8,62.5,29.77,SSE,164,0.0,0.0,86,0.00,,SKC,0.00,VWS V14.01,2013-04-08 08:12:00,
2013-04-08 03:17:00,66.8,62.8,29.76,SSE,164,0.0,0.0,87,0.00,,SKC,0.00,VWS V14.01,2013-04-08 08:17:00,
2013-04-08 03:20:00,66.8,62.8,29.76,SSE,164,0.0,0.0,87,0.00,,SKC,0.00,VWS V14.01,2013-04-08 08:20:00,
2013-04-08 03:22:00,66.8,62.8,29.76,SSE,164,0.0,0.0,87,0.00,,SKC,0.00,VWS V14.01,2013-04-08 08:22:00,
2013-04-08 03:27:00,66.8,62.8,29.76,SSE,164,0.0,0.0,87,0.00,,SKC,0.00,VWS V14.01,2013-04-08 08:27:00,
2013-04-08 03:30:00,66.8,62.8,29.76,SSE,164,0.0,0.0,87,0.00,,SKC,0.00,VWS V14.01,2013-04-08 08:30:00,
2013-04-08 03:32:00,66.8,62.8,29.76,SSE,164,0.0,0.0,87,0.00,,SKC,0.00,VWS V14.01,2013-04-08 08:32:00,
2013-04-08 03:37:00,66.8,62.8,29.75,SSE,164,0.0,0.0,87,0.00,,SKC,0.00,VWS V14.01,2013-04-08 08:37:00,
2013-04-08 03:40:00,66.8,62.8,29.76,SSE,164,0.0,0.0,87,0.00,,SKC,0.00,VWS V14.01,2013-04-08 08:40:00,
2013-04-08 03:42:00,66.8,62.8,29.75,SSE,164,0.0,0.0,87,0.00,,SKC,0.00,VWS V14.01,2013-04-08 08:42:00,
2013-04-08 03:47:00,66.8,62.8,29.75,SSE,164,0.0,0.0,87,0.00,,SKC,0.00,VWS V14.01,2013-04-08 08:47:00,
2013-04-08 03:50:00,66.8,62.8,29.75,SSE,164,0.0,3.0,87,0.00,,SKC,0.00,VWS V14.01,2013-04-08 08:50:00,
2013-04-08 03:52:00,66.8,62.8,29.74,SSE,164,0.0,0.0,87,0.00,,SKC,0.00,VWS V14.01,2013-04-08 08:52:00,
2013-04-08 03:57:00,66.8,62.8,29.74,SSE,164,0.0,0.0,87,0.00,,SKC,0.00,VWS V14.01,2013-04-08 08:57:00,
2013-04-08 04:00:00,66.8,62.8,29.74,SSE,164,0.0,0.0,87,0.00,,SKC,0.00,VWS V14.01,2013-04-08 09:00:00,
2013-04-08 04:02:00,66.8,63.1,29.74,SSE,164,0.0,0.0,88,0.00,,SKC,0.00,VWS V14.01,2013-04-08 09:02:00,
2013-04-08 04:07:00,66.8,63.1,29.74,SSE,164,0.0,0.0,88,0.00,,SKC,0.00,VWS V14.01,2013-04-08 09:07:00,
2013-04-08 04:10:00,66.8,62.8,29.74,SSE,164,0.0,0.0,87,0.00,,SKC,0.00,VWS V14.01,2013-04-08 09:10:00,
2013-04-08 04:12:00,66.8,63.1,29.74,SSE,164,0.0,0.0,88,0.00,,SKC,0.00,VWS V14.01,2013-04-08 09:12:00,
2013-04-08 04:17:00,66.9,63.2,29.73,SSE,164,0.0,0.0,88,0.00,,SKC,0.00,VWS V14.01,2013-04-08 09:17:00,
2013-04-08 04:20:00,66.9,63.2,29.73,SSE,164,0.0,1.0,88,0.00,,SKC,0.00,VWS V14.01,2013-04-08 09:20:00,
2013-04-08 04:22:00,66.9,63.2,29.73,SSE,164,0.0,1.0,88,0.00,,SKC,0.00,VWS V14.01,2013-04-08 09:22:00,
2013-04-08 04:27:00,66.9,63.2,29.73,SSE,164,0.0,4.0,88,0.00,,SKC,0.00,VWS V14.01,2013-04-08 09:27:00,
2013-04-08 04:30:00,66.9,63.2,29.73,SSE,164,4.0,4.0,88,0.00,,SKC,0.00,VWS V14.01,2013-04-08 09:30:00,
2013-04-08 04:32:00,67.0,63.3,29.73,SSE,164,0.0,4.0,88,0.00,,SKC,0.00,VWS V14.01,2013-04-08 09:32:00,
2013-04-08 04:37:00,67.0,63.3,29.73,SSE,164,0.0,0.0,88,0.00,,SKC,0.00,VWS V14.01,2013-04-08 09:37:00,
2013-04-08 04:40:00,67.0,63.3,29.73,SSE,164,0.0,4.0,88,0.00,,SKC,0.00,VWS V14.01,2013-04-08 09:40:00,
2013-04-08 04:42:00,67.0,63.3,29.73,SSE,163,0.0,5.0,88,0.00,,SKC,0.00,VWS V14.01,2013-04-08 09:42:00,
2013-04-08 04:47:00,67.0,63.3,29.73,SSE,163,0.0,0.0,88,0.00,,SKC,0.00,VWS V14.01,2013-04-08 09:47:00,
2013-04-08 04:50:00,67.0,63.3,29.73,SSE,163,0.0,5.0,88,0.00,,SKC,0.00,VWS V14.01,2013-04-08 09:50:00,
2013-04-08 04:52:00,67.0,63.3,29.73,SSE,163,0.0,6.0,88,0.00,,SKC,0.00,VWS V14.01,2013-04-08 09:52:00,
2013-04-08 04:57:00,67.0,63.3,29.72,SSE,161,0.0,0.0,88,0.00,,SKC,0.00,VWS V14.01,2013-04-08 09:57:00,
2013-04-08 05:00:00,67.0,63.3,29.73,SSE,161,0.0,6.0,88,0.00,,SKC,0.00,VWS V14.01,2013-04-08 10:00:00,
2013-04-08 05:02:00,67.0,63.3,29.73,SSE,162,0.0,3.0,88,0.00,,SKC,0.00,VWS V14.01,2013-04-08 10:02:00,
2013-04-08 05:07:00,67.0,63.3,29.72,SSE,161,0.0,4.0,88,0.00,,SKC,0.00,VWS V14.01,2013-04-08 10:07:00,
2013-04-08 05:10:00,67.0,63.3,29.73,SSE,162,0.0,3.0,88,0.00,,SKC,0.00,VWS V14.01,2013-04-08 10:10:00,
2013-04-08 05:12:00,67.0,63.3,29.73,SSE,161,0.0,5.0,88,0.00,,SKC,0.00,VWS V14.01,2013-04-08 10:12:00,
2013-04-08 05:17:00,67.1,63.4,29.72,SSE,162,0.0,0.0,88,0.00,,SKC,0.00,VWS V14.01,2013-04-08 10:17:00,
2013-04-08 05:20:00,67.1,63.4,29.72,SSE,162,0.0,6.0,88,0.00,,SKC,0.00,VWS V14.01,2013-04-08 10:20:00,
2013-04-08 05:23:00,67.1,63.8,29.72,SSE,162,0.0,1.0,89,0.00,,SKC,0.00,VWS V14.01,2013-04-08 10:23:00,
2013-04-08 05:28:00,67.1,63.8,29.72,SSE,161,0.0,0.0,89,0.00,,SKC,0.00,VWS V14.01,2013-04-08 10:28:00,
2013-04-08 05:30:00,67.1,63.8,29.72,SSE,161,0.0,5.0,89,0.00,,SKC,0.00,VWS V14.01,2013-04-08 10:30:00,
2013-04-08 05:33:00,67.1,63.8,29.72,SSE,160,0.0,4.0,89,0.00,,SKC,0.00,VWS V14.01,2013-04-08 10:33:00,
2013-04-08 05:38:00,67.1,63.8,29.72,SSE,160,0.0,5.0,89,0.00,,SKC,0.00,VWS V14.01,2013-04-08 10:38:00,
2013-04-08 05:40:00,67.1,63.8,29.72,SSE,159,0.0,5.0,89,0.00,,SKC,0.00,VWS V14.01,2013-04-08 10:40:00,
2013-04-08 05:43:00,67.1,63.8,29.72,SSE,159,0.0,6.0,89,0.00,,SKC,0.00,VWS V14.01,2013-04-08 10:43:00,
2013-04-08 05:48:00,67.1,63.8,29.72,SSE,165,0.0,3.0,89,0.00,,SKC,0.00,VWS V14.01,2013-04-08 10:48:00,
2013-04-08 05:50:00,67.1,63.8,29.72,SSE,167,0.0,11.0,89,0.00,,SKC,0.00,VWS V14.01,2013-04-08 10:50:00,
2013-04-08 05:53:00,67.1,63.8,29.73,SSE,161,8.0,8.0,89,0.00,,SKC,0.00,VWS V14.01,2013-04-08 10:53:00,
2013-04-08 05:58:00,67.1,63.8,29.73,SSE,161,0.0,0.0,89,0.00,,SKC,0.00,VWS V14.01,2013-04-08 10:58:00,
2013-04-08 06:00:00,67.1,63.8,29.73,SSE,161,0.0,8.0,89,0.00,,SKC,0.00,VWS V14.01,2013-04-08 11:00:00,
2013-04-08 06:03:00,67.1,63.8,29.73,SSE,160,0.0,0.0,89,0.00,,SKC,0.00,VWS V14.01,2013-04-08 11:03:00,
2013-04-08 06:08:00,67.2,63.8,29.73,SSE,159,0.0,3.0,89,0.00,,SKC,0.00,VWS V14.01,2013-04-08 11:08:00,
2013-04-08 06:10:00,67.1,63.8,29.73,SSE,159,1.0,4.0,89,0.00,,SKC,0.00,VWS V14.01,2013-04-08 11:10:00,
2013-04-08 06:13:00,67.1,63.8,29.73,SSE,159,0.0,3.0,89,0.00,,SKC,0.00,VWS V14.01,2013-04-08 11:13:00,
2013-04-08 06:18:00,67.1,63.8,29.73,SSE,159,0.0,0.0,89,0.00,,SKC,0.00,VWS V14.01,2013-04-08 11:18:00,
2013-04-08 06:20:00,67.1,63.8,29.73,SSE,159,0.0,3.0,89,0.00,,SKC,0.00,VWS V14.01,2013-04-08 11:20:00,
2013-04-08 06:23:00,67.1,63.8,29.73,SSE,157,0.0,6.0,89,0.00,,SKC,0.00,VWS V14.01,2013-04-08 11:23:00,
2013-04-08 06:28:00,67.2,63.8,29.73,SSE,158,0.0,0.0,89,0.00,,SKC,0.00,VWS V14.01,2013-04-08 11:28:00,
2013-04-08 06:30:00,67.1,63.8,29.73,SSE,158,0.0,6.0,89,0.00,,SKC,0.00,VWS V14.01,2013-04-08 11:30:00,
2013-04-08 06:33:00,67.2,63.8,29.73,SSE,158,0.0,4.0,89,0.00,,SKC,0.00,VWS V14.01,2013-04-08 11:33:00,
2013-04-08 06:38:00,67.2,63.8,29.73,SSE,157,0.0,1.0,89,0.00,,SKC,0.00,VWS V14.01,2013-04-08 11:38:00,
2013-04-08 06:40:00,67.2,63.8,29.73,SSE,157,0.0,4.0,89,0.00,,SKC,0.00,VWS V14.01,2013-04-08 11:40:00,
2013-04-08 06:43:00,67.2,63.8,29.73,SSE,157,0.0,1.0,89,0.00,,SKC,0.00,VWS V14.01,2013-04-08 11:43:00,
2013-04-08 06:48:00,67.3,64.0,29.73,SSE,156,0.0,0.0,89,0.00,,SKC,0.00,VWS V14.01,2013-04-08 11:48:00,
2013-04-08 06:50:00,67.3,64.0,29.73,SSE,156,0.0,1.0,89,0.00,,SKC,0.00,VWS V14.01,2013-04-08 11:50:00,
2013-04-08 06:53:00,67.3,64.0,29.73,SSE,156,0.0,0.0,89,0.00,,SKC,0.00,VWS V14.01,2013-04-08 11:53:00,
2013-04-08 06:58:00,67.3,64.0,29.73,SSE,156,0.0,0.0,89,0.00,,SKC,0.00,VWS V14.01,2013-04-08 11:58:00,
2013-04-08 07:00:00,67.3,64.0,29.73,SSE,156,0.0,1.0,89,0.00,,SKC,0.00,VWS V14.01,2013-04-08 12:00:00,
2013-04-08 07:03:00,67.3,64.0,29.73,SSE,156,0.0,5.0,89,0.00,,SKC,0.00,VWS V14.01,2013-04-08 12:03:00,
2013-04-08 07:08:00,67.3,64.0,29.73,SSE,156,0.0,0.0,89,0.00,,SKC,0.00,VWS V14.01,2013-04-08 12:08:00,
2013-04-08 07:10:00,67.3,64.0,29.73,SSE,156,0.0,5.0,89,0.00,,SKC,0.00,VWS V14.01,2013-04-08 12:10:00,
2013-04-08 07:13:00,67.3,64.3,29.73,SSE,156,0.0,2.0,90,0.00,,SKC,0.00,VWS V14.01,2013-04-08 12:13:00,
2013-04-08 07:18:00,67.2,64.2,29.73,SSE,156,0.0,0.0,90,0.00,,SKC,0.00,VWS V14.01,2013-04-08 12:18:00,
2013-04-08 07:20:00,67.3,64.3,29.73,SSE,156,0.0,2.0,90,0.00,,SKC,0.00,VWS V14.01,2013-04-08 12:20:00,
2013-04-08 07:23:00,67.2,64.2,29.73,SSE,156,0.0,0.0,90,0.00,,SKC,0.00,VWS V14.01,2013-04-08 12:23:00,
2013-04-08 07:28:00,67.2,64.2,29.74,SSE,156,0.0,2.0,90,0.00,,SKC,0.00,VWS V14.01,2013-04-08 12:28:00,
2013-04-08 07:30:00,67.2,64.2,29.74,SSE,156,0.0,0.0,90,0.00,,SKC,0.00,VWS V14.01,2013-04-08 12:30:00,
2013-04-08 07:33:00,67.2,64.2,29.73,SSE,156,0.0,2.0,90,0.00,,SKC,0.00,VWS V14.01,2013-04-08 12:33:00,
2013-04-08 07:38:00,67.2,64.2,29.74,SSE,156,0.0,0.0,90,0.00,,SKC,0.00,VWS V14.01,2013-04-08 12:38:00,
2013-04-08 07:40:00,67.2,64.2,29.74,SSE,156,0.0,2.0,90,0.00,,SKC,0.00,VWS V14.01,2013-04-08 12:40:00,
2013-04-08 07:43:00,67.2,64.2,29.74,SSE,156,0.0,4.0,90,0.00,,SKC,0.00,VWS V14.01,2013-04-08 12:43:00,
2013-04-08 07:48:00,67.2,64.5,29.74,SSE,156,0.0,1.0,91,0.00,,SKC,0.00,VWS V14.01,2013-04-08 12:48:00,
2013-04-08 07:50:00,67.2,64.5,29.74,SSE,156,0.0,4.0,91,0.00,,SKC,0.00,VWS V14.01,2013-04-08 12:50:00,
2013-04-08 07:53:00,67.2,64.5,29.74,SSE,156,0.0,2.0,91,0.00,,SKC,0.00,VWS V14.01,2013-04-08 12:53:00,
2013-04-08 07:58:00,67.2,64.5,29.74,SSE,156,0.0,0.0,91,0.00,,SKC,0.00,VWS V14.01,2013-04-08 12:58:00,
2013-04-08 08:00:00,67.2,64.5,29.74,SSE,156,0.0,5.0,91,0.00,,SKC,0.00,VWS V14.01,2013-04-08 13:00:00,
2013-04-08 08:03:00,67.2,64.5,29.74,SSE,156,0.0,1.0,91,0.00,,SKC,0.00,VWS V14.01,2013-04-08 13:03:00,
2013-04-08 08:08:00,67.2,64.5,29.74,SSE,156,0.0,0.0,91,0.00,,SKC,0.00,VWS V14.01,2013-04-08 13:08:00,
2013-04-08 08:10:00,67.2,64.5,29.74,SSE,156,0.0,1.0,91,0.00,,SKC,0.00,VWS V14.01,2013-04-08 13:10:00,
2013-04-08 08:13:00,67.2,64.5,29.74,SSE,156,0.0,2.0,91,0.00,,SKC,0.00,VWS V14.01,2013-04-08 13:13:00,
2013-04-08 08:18:00,67.2,64.5,29.74,SSE,156,0.0,0.0,91,0.00,,SKC,0.00,VWS V14.01,2013-04-08 13:18:00,
2013-04-08 08:20:00,67.2,64.5,29.74,SSE,156,0.0,2.0,91,0.00,,SKC,0.00,VWS V14.01,2013-04-08 13:20:00,
2013-04-08 08:23:00,67.2,64.5,29.74,SSE,156,0.0,5.0,91,0.00,,SKC,0.00,VWS V14.01,2013-04-08 13:23:00,
2013-04-08 08:28:00,67.2,64.5,29.74,SSE,156,4.0,7.0,91,0.00,,SKC,0.00,VWS V14.01,2013-04-08 13:28:00,
2013-04-08 08:30:00,67.2,64.5,29.74,SSE,155,0.0,5.0,91,0.00,,SKC,0.00,VWS V14.01,2013-04-08 13:30:00,
2013-04-08 08:33:00,67.3,64.6,29.75,SSE,155,0.0,7.0,91,0.00,,SKC,0.00,VWS V14.01,2013-04-08 13:33:00,
2013-04-08 08:38:00,67.3,64.6,29.74,SSE,155,0.0,2.0,91,0.00,,SKC,0.00,VWS V14.01,2013-04-08 13:38:00,
2013-04-08 08:40:00,67.3,64.6,29.74,SSE,155,0.0,7.0,91,0.00,,SKC,0.00,VWS V14.01,2013-04-08 13:40:00,
2013-04-08 08:43:00,67.4,64.7,29.74,SSE,155,0.0,6.0,91,0.00,,SKC,0.00,VWS V14.01,2013-04-08 13:43:00,
2013-04-08 08:48:00,67.4,64.7,29.74,SSE,155,0.0,8.0,91,0.00,,SKC,0.00,VWS V14.01,2013-04-08 13:48:00,
2013-04-08 08:50:00,67.4,64.7,29.74,SSE,155,0.0,6.0,91,0.00,,SKC,0.00,VWS V14.01,2013-04-08 13:50:00,
2013-04-08 08:53:00,67.4,64.7,29.75,SSE,156,0.0,8.0,91,0.00,,SKC,0.00,VWS V14.01,2013-04-08 13:53:00,
2013-04-08 08:58:00,67.5,64.8,29.75,SSE,155,0.0,7.0,91,0.00,,SKC,0.00,VWS V14.01,2013-04-08 13:58:00,
2013-04-08 09:00:00,67.5,64.8,29.75,SSE,155,4.0,9.0,91,0.00,,SKC,0.00,VWS V14.01,2013-04-08 14:00:00,
2013-04-08 09:03:00,67.5,64.8,29.75,SSE,155,0.0,7.0,91,0.00,,SKC,0.00,VWS V14.01,2013-04-08 14:03:00,
2013-04-08 09:08:00,67.6,64.9,29.75,SSE,156,0.0,0.0,91,0.00,,SKC,0.00,VWS V14.01,2013-04-08 14:08:00,
2013-04-08 09:10:00,67.6,64.9,29.75,SSE,156,0.0,7.0,91,0.00,,SKC,0.00,VWS V14.01,2013-04-08 14:10:00,
2013-04-08 09:13:00,67.6,64.9,29.75,SSE,156,0.0,3.0,91,0.00,,SKC,0.00,VWS V14.01,2013-04-08 14:13:00,
2013-04-08 09:18:00,67.6,65.2,29.75,SSE,156,0.0,0.0,92,0.00,,SKC,0.00,VWS V14.01,2013-04-08 14:18:00,
2013-04-08 09:20:00,67.6,65.2,29.75,SSE,156,0.0,5.0,92,0.00,,SKC,0.00,VWS V14.01,2013-04-08 14:20:00,
2013-04-08 09:23:00,67.6,64.9,29.75,SSE,156,0.0,2.0,91,0.00,,SKC,0.00,VWS V14.01,2013-04-08 14:23:00,
2013-04-08 09:28:00,67.6,64.9,29.75,SSE,156,0.0,0.0,91,0.00,,SKC,0.00,VWS V14.01,2013-04-08 14:28:00,
2013-04-08 09:30:00,67.6,64.9,29.75,SSE,156,0.0,3.0,91,0.00,,SKC,0.00,VWS V14.01,2013-04-08 14:30:00,
2013-04-08 09:33:00,67.6,64.9,29.75,SSE,156,5.0,5.0,91,0.00,,SKC,0.00,VWS V14.01,2013-04-08 14:33:00,
2013-04-08 09:38:00,67.7,65.0,29.75,SSE,156,0.0,0.0,91,0.00,,SKC,0.00,VWS V14.01,2013-04-08 14:38:00,
2013-04-08 09:40:00,67.7,65.0,29.75,SSE,156,0.0,5.0,91,0.00,,SKC,0.00,VWS V14.01,2013-04-08 14:40:00,
2013-04-08 09:43:00,67.7,65.0,29.75,SSE,156,0.0,4.0,91,0.00,,SKC,0.00,VWS V14.01,2013-04-08 14:43:00,
2013-04-08 09:48:00,67.8,65.4,29.75,SSE,157,4.0,4.0,92,0.00,,SKC,0.00,VWS V14.01,2013-04-08 14:48:00,
2013-04-08 09:50:00,67.7,65.3,29.75,SSE,157,0.0,6.0,92,0.00,,SKC,0.00,VWS V14.01,2013-04-08 14:50:00,
2013-04-08 09:53:00,67.9,65.5,29.75,SSE,156,0.0,7.0,92,0.00,,SKC,0.00,VWS V14.01,2013-04-08 14:53:00,
2013-04-08 09:58:00,67.9,65.5,29.75,SSE,157,0.0,0.0,92,0.00,,SKC,0.00,VWS V14.01,2013-04-08 14:58:00,
2013-04-08 10:00:00,67.9,65.5,29.75,SSE,157,0.0,7.0,92,0.00,,SKC,0.00,VWS V14.01,2013-04-08 15:00:00,
2013-04-08 10:03:00,68.0,65.3,29.75,SSE,157,0.0,9.0,91,0.00,,SKC,0.00,VWS V14.01,2013-04-08 15:03:00,
2013-04-08 10:08:00,68.1,65.4,29.75,SSE,159,1.0,9.0,91,0.00,,SKC,0.00,VWS V14.01,2013-04-08 15:08:00,
2013-04-08 10:10:00,68.1,65.4,29.75,SSE,159,0.0,9.0,91,0.00,,SKC,0.00,VWS V14.01,2013-04-08 15:10:00,
2013-04-08 10:13:00,68.3,65.6,29.76,SSE,155,0.0,9.0,91,0.00,,SKC,0.00,VWS V14.01,2013-04-08 15:13:00,
2013-04-08 10:18:00,68.5,65.8,29.75,SSE,155,0.0,1.0,91,0.00,,SKC,0.00,VWS V14.01,2013-04-08 15:18:00,
2013-04-08 10:20:00,68.4,65.7,29.75,SSE,155,0.0,9.0,91,0.00,,SKC,0.00,VWS V14.01,2013-04-08 15:20:00,
2013-04-08 10:23:00,68.7,66.0,29.75,SSE,155,0.0,2.0,91,0.00,,SKC,0.00,VWS V14.01,2013-04-08 15:23:00,
2013-04-08 10:28:00,68.9,65.8,29.75,SSE,155,0.0,5.0,90,0.00,,SKC,0.00,VWS V14.01,2013-04-08 15:28:00,
2013-04-08 10:30:00,68.8,65.8,29.75,SSE,157,0.0,7.0,90,0.00,,SKC,0.00,VWS V14.01,2013-04-08 15:30:00,
2013-04-08 10:33:00,69.2,66.2,29.76,SSE,161,0.0,9.0,90,0.00,,SKC,0.00,VWS V14.01,2013-04-08 15:33:00,
2013-04-08 10:38:00,69.4,66.0,29.76,SSE,160,0.0,11.0,89,0.00,,SKC,0.00,VWS V14.01,2013-04-08 15:38:00,
2013-04-08 10:40:00,69.3,66.2,29.75,SSE,161,0.0,9.0,90,0.00,,SKC,0.00,VWS V14.01,2013-04-08 15:40:00,
2013-04-08 10:43:00,69.5,66.1,29.76,SSE,159,0.0,11.0,89,0.00,,SKC,0.00,VWS V14.01,2013-04-08 15:43:00,
2013-04-08 10:49:00,69.6,66.2,29.76,SSE,157,0.0,9.0,89,0.00,,SKC,0.00,VWS V14.01,2013-04-08 15:49:00,
2013-04-08 10:50:00,69.6,66.2,29.76,SSE,157,0.0,11.0,89,0.00,,SKC,0.00,VWS V14.01,2013-04-08 15:50:00,
2013-04-08 10:54:00,69.7,66.0,29.76,South,171,7.0,11.0,88,0.00,,SKC,0.00,VWS V14.01,2013-04-08 15:54:00,
2013-04-08 10:59:00,69.7,66.3,29.76,SSE,161,7.0,7.0,89,0.00,,SKC,0.00,VWS V14.01,2013-04-08 15:59:00,
2013-04-08 11:00:00,69.7,66.0,29.76,SSE,162,5.0,12.0,88,0.00,,SKC,0.00,VWS V14.01,2013-04-08 16:00:00,
2013-04-08 11:04:00,69.8,66.1,29.76,SSE,162,0.0,8.0,88,0.00,,SKC,0.00,VWS V14.01,2013-04-08 16:04:00,
2013-04-08 11:09:00,69.8,66.1,29.76,SSE,150,0.0,8.0,88,0.00,,SKC,0.00,VWS V14.01,2013-04-08 16:09:00,
2013-04-08 11:10:00,69.8,66.4,29.76,SSE,160,6.0,11.0,89,0.00,,SKC,0.00,VWS V14.01,2013-04-08 16:10:00,
2013-04-08 11:14:00,69.9,66.2,29.75,SSE,162,1.0,13.0,88,0.00,,SKC,0.00,VWS V14.01,2013-04-08 16:14:00,
2013-04-08 11:19:00,70.1,66.4,29.76,SSE,157,0.0,9.0,88,0.00,,SKC,0.00,VWS V14.01,2013-04-08 16:19:00,
2013-04-08 11:20:00,70.0,66.3,29.76,SSE,159,9.0,13.0,88,0.00,,SKC,0.00,VWS V14.01,2013-04-08 16:20:00,
2013-04-08 11:24:00,70.3,66.6,29.76,SSE,150,1.0,9.0,88,0.00,,SKC,0.00,VWS V14.01,2013-04-08 16:24:00,
2013-04-08 11:29:00,70.5,66.8,29.76,SSE,155,12.0,12.0,88,0.00,,SKC,0.00,VWS V14.01,2013-04-08 16:29:00,
2013-04-08 11:30:00,70.4,66.7,29.76,SSE,153,5.0,9.0,88,0.00,,SKC,0.00,VWS V14.01,2013-04-08 16:30:00,
2013-04-08 11:34:00,70.5,66.4,29.76,South,173,8.0,14.0,87,0.00,,SKC,0.00,VWS V14.01,2013-04-08 16:34:00,
2013-04-08 11:39:00,70.2,66.5,29.76,South,170,3.0,14.0,88,0.00,,SKC,0.00,VWS V14.01,2013-04-08 16:39:00,
2013-04-08 11:40:00,70.4,66.7,29.76,SSE,168,6.0,14.0,88,0.00,,SKC,0.00,VWS V14.01,2013-04-08 16:40:00,
2013-04-08 11:44:00,70.1,66.7,29.76,SSE,165,0.0,14.0,89,0.00,,SKC,0.00,VWS V14.01,2013-04-08 16:44:00,
2013-04-08 11:49:00,70.2,66.8,29.75,South,169,7.0,13.0,89,0.00,,SKC,0.00,VWS V14.01,2013-04-08 16:49:00,
2013-04-08 11:50:00,70.1,66.7,29.75,SSE,165,0.0,14.0,89,0.00,,SKC,0.00,VWS V14.01,2013-04-08 16:50:00,
2013-04-08 11:54:00,70.2,66.5,29.75,South,178,0.0,13.0,88,0.00,,SKC,0.00,VWS V14.01,2013-04-08 16:54:00,
2013-04-08 11:59:00,70.2,66.8,29.75,South,171,0.0,9.0,89,0.00,,SKC,0.00,VWS V14.01,2013-04-08 16:59:00,
2013-04-08 12:00:00,70.2,66.8,29.75,SSE,166,7.0,13.0,89,0.00,,SKC,0.00,VWS V14.01,2013-04-08 17:00:00,
2013-04-08 12:04:00,70.2,66.8,29.75,SE,146,2.0,9.0,89,0.00,,SKC,0.00,VWS V14.01,2013-04-08 17:04:00,
2013-04-08 12:09:00,70.2,66.5,29.75,SSE,155,0.0,11.0,88,0.00,,SKC,0.00,VWS V14.01,2013-04-08 17:09:00,
2013-04-08 12:10:00,70.2,66.5,29.75,SSE,158,2.0,10.0,88,0.00,,SKC,0.00,VWS V14.01,2013-04-08 17:10:00,
2013-04-08 12:14:00,70.2,66.8,29.75,SSE,161,9.0,11.0,89,0.00,,SKC,0.00,VWS V14.01,2013-04-08 17:14:00,
2013-04-08 12:19:00,70.2,66.8,29.75,South,174,0.0,11.0,89,0.00,,SKC,0.00,VWS V14.01,2013-04-08 17:19:00,
2013-04-08 12:20:00,70.2,66.8,29.75,SSE,163,0.0,11.0,89,0.00,,SKC,0.00,VWS V14.01,2013-04-08 17:20:00,
2013-04-08 12:24:00,70.2,66.8,29.75,South,169,6.0,11.0,89,0.00,,SKC,0.00,VWS V14.01,2013-04-08 17:24:00,
2013-04-08 12:29:00,70.2,66.5,29.74,SSE,162,7.0,9.0,88,0.00,,SKC,0.00,VWS V14.01,2013-04-08 17:29:00,
2013-04-08 12:30:00,70.2,66.5,29.74,SSE,167,5.0,11.0,88,0.00,,SKC,0.00,VWS V14.01,2013-04-08 17:30:00,
2013-04-08 12:34:00,70.3,66.6,29.74,SSE,161,0.0,9.0,88,0.00,,SKC,0.00,VWS V14.01,2013-04-08 17:34:00,
2013-04-08 12:39:00,70.4,66.7,29.74,SSE,164,6.0,10.0,88,0.00,,SKC,0.00,VWS V14.01,2013-04-08 17:39:00,
2013-04-08 12:40:00,70.3,66.6,29.74,SSE,163,0.0,9.0,88,0.00,,SKC,0.00,VWS V14.01,2013-04-08 17:40:00,
2013-04-08 12:44:00,70.6,66.6,29.74,SSE,165,4.0,10.0,87,0.00,,SKC,0.00,VWS V14.01,2013-04-08 17:44:00,
2013-04-08 12:49:00,70.8,66.4,29.73,SSE,156,5.0,11.0,86,0.00,,SKC,0.00,VWS V14.01,2013-04-08 17:49:00,
2013-04-08 12:50:00,70.7,66.7,29.74,SSE,164,2.0,11.0,87,0.00,,SKC,0.00,VWS V14.01,2013-04-08 17:50:00,
2013-04-08 12:54:00,71.1,66.4,29.73,SSE,157,7.0,11.0,85,0.00,,SKC,0.00,VWS V14.01,2013-04-08 17:54:00,
2013-04-08 12:59:00,71.4,66.7,29.73,SE,132,6.0,10.0,85,0.00,,SKC,0.00,VWS V14.01,2013-04-08 17:59:00,
2013-04-08 13:00:00,71.2,66.5,29.73,South,172,6.0,17.0,85,0.00,,SKC,0.00,VWS V14.01,2013-04-08 18:00:00,
2013-04-08 13:04:00,71.7,66.9,29.73,SSE,158,0.0,12.0,85,0.00,,SKC,0.00,VWS V14.01,2013-04-08 18:04:00,
2013-04-08 13:09:00,72.0,66.6,29.73,SSE,161,0.0,10.0,83,0.00,,SKC,0.00,VWS V14.01,2013-04-08 18:09:00,
2013-04-08 13:10:00,71.8,66.7,29.73,SSE,159,0.0,12.0,84,0.00,,SKC,0.00,VWS V14.01,2013-04-08 18:10:00,
2013-04-08 13:14:00,72.2,66.8,29.73,South,171,6.0,14.0,83,0.00,,SKC,0.00,VWS V14.01,2013-04-08 18:14:00,
2013-04-08 13:19:00,72.4,66.6,29.73,SSE,159,5.0,11.0,82,0.00,,SKC,0.00,VWS V14.01,2013-04-08 18:19:00,
2013-04-08 13:20:00,72.2,66.8,29.73,SSE,168,0.0,14.0,83,0.00,,SKC,0.00,VWS V14.01,2013-04-08 18:20:00,
2013-04-08 13:24:00,72.7,66.5,29.73,SSE,156,0.0,11.0,81,0.00,,SKC,0.00,VWS V14.01,2013-04-08 18:24:00,
2013-04-08 13:29:00,72.9,66.7,29.73,SSE,155,0.0,8.0,81,0.00,,SKC,0.00,VWS V14.01,2013-04-08 18:29:00,
2013-04-08 13:30:00,72.8,66.6,29.73,SSE,156,0.0,11.0,81,0.00,,SKC,0.00,VWS V14.01,2013-04-08 18:30:00,
2013-04-08 13:34:00,73.1,66.9,29.72,SSE,164,0.0,11.0,81,0.00,,SKC,0.00,VWS V14.01,2013-04-08 18:34:00,
2013-04-08 13:39:00,73.5,67.0,29.72,SSE,166,7.0,9.0,80,0.00,,SKC,0.00,VWS V14.01,2013-04-08 18:39:00,
2013-04-08 13:40:00,73.3,67.1,29.72,SSE,163,0.0,11.0,81,0.00,,SKC,0.00,VWS V14.01,2013-04-08 18:40:00,
2013-04-08 13:44:00,73.7,66.8,29.71,SSE,158,0.0,11.0,79,0.00,,SKC,0.00,VWS V14.01,2013-04-08 18:44:00,
2013-04-08 13:50:00,73.7,66.8,29.71,SSE,159,0.0,7.0,79,0.00,,SKC,0.00,VWS V14.01,2013-04-08 18:50:00,
2013-04-08 13:55:00,73.6,66.7,29.71,South,175,2.0,12.0,79,0.00,,SKC,0.00,VWS V14.01,2013-04-08 18:55:00,
2013-04-08 13:59:00,73.5,66.6,29.71,SSE,165,7.0,11.0,79,0.00,,SKC,0.00,VWS V14.01,2013-04-08 18:59:00,
2013-04-08 14:00:00,73.6,66.7,29.71,South,171,0.0,12.0,79,0.00,,SKC,0.00,VWS V14.01,2013-04-08 19:00:00,
2013-04-08 14:04:00,73.4,66.5,29.70,SSE,161,0.0,15.0,79,0.00,,SKC,0.00,VWS V14.01,2013-04-08 19:04:00,
2013-04-08 14:09:00,73.3,66.4,29.70,SSE,162,9.0,11.0,79,0.00,,SKC,0.00,VWS V14.01,2013-04-08 19:09:00,
2013-04-08 14:10:00,73.3,66.4,29.70,SSE,162,0.0,15.0,79,0.00,,SKC,0.00,VWS V14.01,2013-04-08 19:10:00,
2013-04-08 14:14:00,73.4,66.5,29.70,SSE,166,7.0,13.0,79,0.00,,SKC,0.00,VWS V14.01,2013-04-08 19:14:00,
2013-04-08 14:20:00,73.5,66.6,29.70,South,170,0.0,7.0,79,0.00,,SKC,0.00,VWS V14.01,2013-04-08 19:20:00,
2013-04-08 14:25:00,73.6,66.7,29.69,SSE,155,0.0,11.0,79,0.00,,SKC,0.00,VWS V14.01,2013-04-08 19:25:00,
2013-04-08 14:30:00,73.7,66.8,29.69,SSE,157,0.0,7.0,79,0.00,,SKC,0.00,VWS V14.01,2013-04-08 19:30:00,
2013-04-08 14:35:00,73.8,66.9,29.69,SSE,160,0.0,10.0,79,0.00,,SKC,0.00,VWS V14.01,2013-04-08 19:35:00,
2013-04-08 14:40:00,74.0,66.7,29.69,SSE,168,4.0,10.0,78,0.00,,SKC,0.00,VWS V14.01,2013-04-08 19:40:00,
2013-04-08 14:45:00,74.3,67.0,29.69,SSE,162,0.0,10.0,78,0.00,,SKC,0.00,VWS V14.01,2013-04-08 19:45:00,
2013-04-08 14:50:00,74.7,67.4,29.68,SSE,159,4.0,10.0,78,0.00,,SKC,0.00,VWS V14.01,2013-04-08 19:50:00,
2013-04-08 14:55:00,75.2,67.5,29.68,South,169,11.0,11.0,77,0.00,,SKC,0.00,VWS V14.01,2013-04-08 19:55:00,
2013-04-08 15:00:00,75.5,67.4,29.68,SSE,165,0.0,8.0,76,0.00,,SKC,0.00,VWS V14.01,2013-04-08 20:00:00,
2013-04-08 15:05:00,75.7,67.2,29.68,SSE,161,10.0,10.0,75,0.00,,SKC,0.00,VWS V14.01,2013-04-08 20:05:00,
2013-04-08 15:10:00,75.6,67.1,29.67,SSE,157,1.0,9.0,75,0.00,,SKC,0.00,VWS V14.01,2013-04-08 20:10:00,
2013-04-08 15:15:00,75.1,67.0,29.67,SSE,157,0.0,11.0,76,0.00,,SKC,0.00,VWS V14.01,2013-04-08 20:15:00,
2013-04-08 15:20:00,74.7,66.6,29.67,SSE,153,0.0,6.0,76,0.00,,SKC,0.00,VWS V14.01,2013-04-08 20:20:00,
2013-04-08 15:25:00,74.6,66.9,29.67,SSE,155,0.0,8.0,77,0.00,,SKC,0.00,VWS V14.01,2013-04-08 20:25:00,
2013-04-08 15:30:00,74.5,66.8,29.67,SSE,153,0.0,3.0,77,0.00,,SKC,0.00,VWS V14.01,2013-04-08 20:30:00,
2013-04-08 15:35:00,74.6,66.9,29.67,SSE,157,0.0,10.0,77,0.00,,SKC,0.00,VWS V14.01,2013-04-08 20:35:00,
2013-04-08 15:40:00,74.6,66.9,29.67,SSE,152,0.0,9.0,77,0.00,,SKC,0.00,VWS V14.01,2013-04-08 20:40:00,
2013-04-08 15:45:00,74.8,67.1,29.66,SSE,159,8.0,10.0,77,0.00,,SKC,0.00,VWS V14.01,2013-04-08 20:45:00,
2013-04-08 15:50:00,75.0,67.3,29.66,SSE,149,0.0,8.0,77,0.00,,SKC,0.00,VWS V14.01,2013-04-08 20:50:00,
2013-04-08 15:55:00,75.2,67.1,29.66,SSE,161,2.0,11.0,76,0.00,,SKC,0.00,VWS V14.01,2013-04-08 20:55:00,
2013-04-08 16:00:00,75.4,67.3,29.65,SSE,164,0.0,10.0,76,0.00,,SKC,0.00,VWS V14.01,2013-04-08 21:00:00,
2013-04-08 16:05:00,75.6,67.1,29.65,SSE,161,0.0,10.0,75,0.00,,SKC,0.00,VWS V14.01,2013-04-08 21:05:00,
2013-04-08 16:10:00,75.8,67.3,29.65,SSE,161,0.0,4.0,75,0.00,,SKC,0.00,VWS V14.01,2013-04-08 21:10:00,
2013-04-08 16:15:00,76.0,67.5,29.65,SSE,163,0.0,6.0,75,0.00,,SKC,0.00,VWS V14.01,2013-04-08 21:15:00,
2013-04-08 16:20:00,76.2,67.3,29.65,SSE,164,0.0,9.0,74,0.00,,SKC,0.00,VWS V14.01,2013-04-08 21:20:00,
2013-04-08 16:25:00,76.2,67.3,29.65,SSE,166,0.0,9.0,74,0.00,,SKC,0.00,VWS V14.01,2013-04-08 21:25:00,
2013-04-08 16:30:00,76.2,67.3,29.65,SSE,159,0.0,5.0,74,0.00,,SKC,0.00,VWS V14.01,2013-04-08 21:30:00,
2013-04-08 16:35:00,76.1,67.2,29.65,SSE,163,0.0,12.0,74,0.00,,SKC,0.00,VWS V14.01,2013-04-08 21:35:00,
2013-04-08 16:40:00,75.9,67.0,29.65,SSE,163,0.0,5.0,74,0.00,,SKC,0.00,VWS V14.01,2013-04-08 21:40:00,
2013-04-08 16:45:00,75.8,66.9,29.65,SSE,163,0.0,8.0,74,0.00,,SKC,0.00,VWS V14.01,2013-04-08 21:45:00,
2013-04-08 16:50:00,75.7,67.2,29.65,SSE,148,0.0,9.0,75,0.00,,SKC,0.00,VWS V14.01,2013-04-08 21:50:00,
2013-04-08 16:55:00,75.7,67.2,29.65,SSE,150,0.0,9.0,75,0.00,,SKC,0.00,VWS V14.01,2013-04-08 21:55:00,
2013-04-08 17:00:00,75.7,67.2,29.66,SSE,156,0.0,6.0,75,0.00,,SKC,0.00,VWS V14.01,2013-04-08 22:00:00,
2013-04-08 17:05:00,75.7,67.2,29.66,SSE,153,0.0,6.0,75,0.00,,SKC,0.00,VWS V14.01,2013-04-08 22:05:00,
2013-04-08 17:10:00,75.6,67.1,29.65,SSE,156,1.0,5.0,75,0.00,,SKC,0.00,VWS V14.01,2013-04-08 22:10:00,
2013-04-08 17:15:00,75.6,67.1,29.65,SSE,156,0.0,5.0,75,0.00,,SKC,0.00,VWS V14.01,2013-04-08 22:15:00,
2013-04-08 17:20:00,75.5,67.4,29.65,SSE,154,0.0,5.0,76,0.00,,SKC,0.00,VWS V14.01,2013-04-08 22:20:00,
2013-04-08 17:25:00,75.5,67.4,29.65,SSE,150,0.0,7.0,76,0.00,,SKC,0.00,VWS V14.01,2013-04-08 22:25:00,
2013-04-08 17:30:00,75.6,67.5,29.65,SSE,148,0.0,4.0,76,0.00,,SKC,0.00,VWS V14.01,2013-04-08 22:30:00,
2013-04-08 17:35:00,75.6,67.5,29.66,SSE,147,0.0,5.0,76,0.00,,SKC,0.00,VWS V14.01,2013-04-08 22:35:00,
2013-04-08 17:40:00,75.6,67.5,29.65,SSE,148,0.0,2.0,76,0.00,,SKC,0.00,VWS V14.01,2013-04-08 22:40:00,
2013-04-08 17:45:00,75.6,67.5,29.65,SE,145,0.0,7.0,76,0.00,,SKC,0.00,VWS V14.01,2013-04-08 22:45:00,
2013-04-08 17:50:00,75.6,67.5,29.65,SE,146,3.0,3.0,76,0.00,,SKC,0.00,VWS V14.01,2013-04-08 22:50:00,
2013-04-08 17:55:00,75.5,67.4,29.66,SSE,154,0.0,7.0,76,0.00,,SKC,0.00,VWS V14.01,2013-04-08 22:55:00,
2013-04-08 18:00:00,75.4,67.3,29.66,SE,136,2.0,8.0,76,0.00,,SKC,0.00,VWS V14.01,2013-04-08 23:00:00,
2013-04-08 18:05:00,75.2,67.1,29.65,ESE,121,7.0,10.0,76,0.00,,SKC,0.00,VWS V14.01,2013-04-08 23:05:00,
2013-04-08 18:10:00,75.1,67.0,29.65,ESE,115,0.0,9.0,76,0.00,,SKC,0.00,VWS V14.01,2013-04-08 23:10:00,
2013-04-08 18:15:00,75.0,66.9,29.65,ESE,110,0.0,11.0,76,0.00,,SKC,0.00,VWS V14.01,2013-04-08 23:15:00,
2013-04-08 18:20:00,75.0,66.9,29.65,ESE,112,0.0,8.0,76,0.00,,SKC,0.00,VWS V14.01,2013-04-08 23:20:00,
2013-04-08 18:25:00,75.0,66.9,29.65,ESE,109,9.0,9.0,76,0.00,,SKC,0.00,VWS V14.01,2013-04-08 23:25:00,
2013-04-08 18:30:00,75.0,66.9,29.65,ESE,113,0.0,9.0,76,0.00,,SKC,0.00,VWS V14.01,2013-04-08 23:30:00,
2013-04-08 18:35:00,74.9,66.8,29.65,ESE,113,0.0,9.0,76,0.00,,SKC,0.00,VWS V14.01,2013-04-08 23:35:00,
2013-04-08 18:40:00,75.0,66.9,29.65,ESE,111,0.0,8.0,76,0.00,,SKC,0.00,VWS V14.01,2013-04-08 23:40:00,
2013-04-08 18:46:00,75.0,66.9,29.65,ESE,111,0.0,8.0,76,0.00,,SKC,0.00,VWS V14.01,2013-04-08 23:46:00,
2013-04-08 18:50:00,75.0,66.9,29.65,ESE,115,9.0,10.0,76,0.00,,SKC,0.00,VWS V14.01,2013-04-08 23:50:00,
2013-04-08 18:51:00,74.9,66.8,29.65,ESE,119,0.0,11.0,76,0.00,,SKC,0.00,VWS V14.01,2013-04-08 23:51:00,
2013-04-08 18:56:00,74.9,66.8,29.65,ESE,119,0.0,12.0,76,0.00,,SKC,0.00,VWS V14.01,2013-04-08 23:56:00,
2013-04-08 19:00:00,74.8,66.7,29.65,ESE,119,0.0,12.0,76,0.00,,SKC,0.00,VWS V14.01,2013-04-09 00:00:00,
2013-04-08 19:01:00,74.8,67.1,29.65,ESE,119,0.0,9.0,77,0.00,,SKC,0.00,VWS V14.01,2013-04-09 00:01:00,
2013-04-08 19:06:00,74.7,67.0,29.65,SE,128,0.0,9.0,77,0.00,,SKC,0.00,VWS V14.01,2013-04-09 00:06:00,
2013-04-08 19:10:00,74.6,66.9,29.64,SE,128,0.0,9.0,77,0.00,,SKC,0.00,VWS V14.01,2013-04-09 00:10:00,
2013-04-08 19:15:00,74.4,66.7,29.64,ESE,119,0.0,10.0,77,0.00,,SKC,0.00,VWS V14.01,2013-04-09 00:15:00,
2013-04-08 19:20:00,74.2,66.5,29.65,ESE,117,1.0,12.0,77,0.00,,SKC,0.00,VWS V14.01,2013-04-09 00:20:00,
2013-04-08 19:25:00,74.1,66.8,29.65,SE,131,0.0,15.0,78,0.00,,SKC,0.00,VWS V14.01,2013-04-09 00:25:00,
2013-04-08 19:30:00,73.9,66.6,29.65,ESE,119,0.0,14.0,78,0.00,,SKC,0.00,VWS V14.01,2013-04-09 00:30:00,
2013-04-08 19:35:00,73.8,66.5,29.65,ESE,112,8.0,14.0,78,0.00,,SKC,0.00,VWS V14.01,2013-04-09 00:35:00,
2013-04-08 19:40:00,73.6,66.3,29.64,East,98,6.0,14.0,78,0.00,,SKC,0.00,VWS V14.01,2013-04-09 00:40:00,
2013-04-08 19:45:00,73.4,66.5,29.64,ESE,121,1.0,14.0,79,0.00,,SKC,0.00,VWS V14.01,2013-04-09 00:45:00,
2013-04-08 19:50:00,73.1,66.2,29.64,ESE,120,0.0,12.0,79,0.00,,SKC,0.00,VWS V14.01,2013-04-09 00:50:00,
2013-04-08 19:55:00,72.8,66.3,29.64,ESE,117,1.0,12.0,80,0.00,,SKC,0.00,VWS V14.01,2013-04-09 00:55:00,
2013-04-08 20:00:00,72.6,66.1,29.65,ESE,121,7.0,10.0,80,0.00,,SKC,0.00,VWS V14.01,2013-04-09 01:00:00,
2013-04-08 20:05:00,72.3,66.2,29.65,ESE,119,0.0,11.0,81,0.00,,SKC,0.00,VWS V14.01,2013-04-09 01:05:00,
2013-04-08 20:10:00,72.1,65.9,29.64,ESE,117,7.0,9.0,81,0.00,,SKC,0.00,VWS V14.01,2013-04-09 01:10:00,
2013-04-08 20:15:00,71.9,65.8,29.64,ESE,119,1.0,10.0,81,0.00,,SKC,0.00,VWS V14.01,2013-04-09 01:15:00,
2013-04-08 20:20:00,71.6,65.8,29.65,ESE,113,0.0,13.0,82,0.00,,SKC,0.00,VWS V14.01,2013-04-09 01:20:00,
2013-04-08 20:25:00,71.5,65.7,29.65,ESE,115,0.0,13.0,82,0.00,,SKC,0.00,VWS V14.01,2013-04-09 01:25:00,
2013-04-08 20:30:00,71.3,65.9,29.65,ESE,112,0.0,11.0,83,0.00,,SKC,0.00,VWS V14.01,2013-04-09 01:30:00,
2013-04-08 20:35:00,71.2,65.8,29.65,ESE,117,0.0,11.0,83,0.00,,SKC,0.00,VWS V14.01,2013-04-09 01:35:00,
2013-04-08 20:40:00,71.2,65.8,29.65,ESE,117,0.0,11.0,83,0.00,,SKC,0.00,VWS V14.01,2013-04-09 01:40:00,
2013-04-08 20:41:00,71.2,65.8,29.65,ESE,119,0.0,14.0,83,0.00,,SKC,0.00,VWS V14.01,2013-04-09 01:41:00,
2013-04-08 20:46:00,71.2,65.8,29.65,ESE,113,13.0,14.0,83,0.00,,SKC,0.00,VWS V14.01,2013-04-09 01:46:00,
2013-04-08 20:50:00,71.2,65.8,29.65,ESE,111,3.0,15.0,83,0.00,,SKC,0.00,VWS V14.01,2013-04-09 01:50:00,
2013-04-08 20:51:00,71.2,65.8,29.65,ESE,118,0.0,12.0,83,0.00,,SKC,0.00,VWS V14.01,2013-04-09 01:51:00,
2013-04-08 20:56:00,71.3,65.9,29.66,ESE,121,3.0,12.0,83,0.00,,SKC,0.00,VWS V14.01,2013-04-09 01:56:00,
2013-04-08 21:00:00,71.3,65.9,29.66,ESE,121,0.0,12.0,83,0.00,,SKC,0.00,VWS V14.01,2013-04-09 02:00:00,
2013-04-08 21:01:00,71.3,65.9,29.66,SE,126,2.0,8.0,83,0.00,,SKC,0.00,VWS V14.01,2013-04-09 02:01:00,
2013-04-08 21:06:00,71.3,65.9,29.67,SE,124,6.0,9.0,83,0.00,,SKC,0.00,VWS V14.01,2013-04-09 02:06:00,
2013-04-08 21:10:00,71.3,65.9,29.67,SE,124,0.0,9.0,83,0.00,,SKC,0.00,VWS V14.01,2013-04-09 02:10:00,
2013-04-08 21:11:00,71.3,66.2,29.67,SE,124,9.0,9.0,84,0.00,,SKC,0.00,VWS V14.01,2013-04-09 02:11:00,
2013-04-08 21:16:00,71.3,66.2,29.67,ESE,119,0.0,12.0,84,0.00,,SKC,0.00,VWS V14.01,2013-04-09 02:16:00,
2013-04-08 21:20:00,71.2,66.1,29.67,ESE,119,0.0,12.0,84,0.00,,SKC,0.00,VWS V14.01,2013-04-09 02:20:00,
2013-04-08 21:21:00,71.2,66.1,29.67,ESE,118,1.0,8.0,84,0.00,,SKC,0.00,VWS V14.01,2013-04-09 02:21:00,
2013-04-08 21:26:00,71.2,66.1,29.67,ESE,121,0.0,10.0,84,0.00,,SKC,0.00,VWS V14.01,2013-04-09 02:26:00,
2013-04-08 21:30:00,71.1,66.0,29.67,ESE,119,8.0,14.0,84,0.00,,SKC,0.00,VWS V14.01,2013-04-09 02:30:00,
2013-04-08 21:31:00,71.1,66.0,29.67,ESE,123,0.0,12.0,84,0.00,,SKC,0.00,VWS V14.01,2013-04-09 02:31:00,
2013-04-08 21:36:00,71.0,66.3,29.67,SSE,152,0.0,12.0,85,0.00,,SKC,0.00,VWS V14.01,2013-04-09 02:36:00,
2013-04-08 21:40:00,71.0,66.3,29.67,SSE,152,0.0,12.0,85,0.00,,SKC,0.00,VWS V14.01,2013-04-09 02:40:00,
2013-04-08 21:41:00,71.0,66.3,29.67,SSE,161,0.0,14.0,85,0.00,,SKC,0.00,VWS V14.01,2013-04-09 02:41:00,
2013-04-08 21:46:00,70.9,66.2,29.67,SE,136,0.0,14.0,85,0.00,,SKC,0.00,VWS V14.01,2013-04-09 02:46:00,
2013-04-08 21:50:00,70.9,66.2,29.67,SE,136,0.0,14.0,85,0.00,,SKC,0.00,VWS V14.01,2013-04-09 02:50:00,
2013-04-08 21:51:00,70.9,66.2,29.67,SE,133,0.0,8.0,85,0.00,,SKC,0.00,VWS V14.01,2013-04-09 02:51:00,
2013-04-08 21:56:00,70.9,66.2,29.68,SE,142,0.0,1.0,85,0.00,,SKC,0.00,VWS V14.01,2013-04-09 02:56:00,
2013-04-08 22:00:00,70.9,66.2,29.68,SE,142,1.0,8.0,85,0.00,,SKC,0.00,VWS V14.01,2013-04-09 03:00:00,
2013-04-08 22:01:00,70.8,66.1,29.68,SE,133,0.0,6.0,85,0.00,,SKC,0.00,VWS V14.01,2013-04-09 03:01:00,
2013-04-08 22:06:00,70.9,66.5,29.68,SE,128,5.0,6.0,86,0.00,,SKC,0.00,VWS V14.01,2013-04-09 03:06:00,
2013-04-08 22:10:00,70.8,66.4,29.68,SE,127,0.0,7.0,86,0.00,,SKC,0.00,VWS V14.01,2013-04-09 03:10:00,
2013-04-08 22:11:00,70.8,66.4,29.68,SE,126,0.0,6.0,86,0.00,,SKC,0.00,VWS V14.01,2013-04-09 03:11:00,
2013-04-08 22:16:00,70.8,66.4,29.68,SE,126,0.0,0.0,86,0.00,,SKC,0.00,VWS V14.01,2013-04-09 03:16:00,
2013-04-08 22:20:00,70.8,66.4,29.68,SE,126,0.0,6.0,86,0.00,,SKC,0.00,VWS V14.01,2013-04-09 03:20:00,
2013-04-08 22:21:00,70.8,66.4,29.68,SE,124,0.0,7.0,86,0.00,,SKC,0.00,VWS V14.01,2013-04-09 03:21:00,
2013-04-08 22:27:00,70.9,66.5,29.68,ESE,123,0.0,0.0,86,0.00,,SKC,0.00,VWS V14.01,2013-04-09 03:27:00,
2013-04-08 22:30:00,70.9,66.5,29.68,ESE,123,0.0,11.0,86,0.00,,SKC,0.00,VWS V14.01,2013-04-09 03:30:00,
2013-04-08 22:32:00,70.9,66.5,29.68,ESE,123,0.0,0.0,86,0.00,,SKC,0.00,VWS V14.01,2013-04-09 03:32:00,
2013-04-08 22:37:00,70.8,66.4,29.68,ESE,121,0.0,0.0,86,0.00,,SKC,0.00,VWS V14.01,2013-04-09 03:37:00,
2013-04-08 22:40:00,70.9,66.5,29.68,ESE,121,0.0,9.0,86,0.00,,SKC,0.00,VWS V14.01,2013-04-09 03:40:00,
2013-04-08 22:42:00,70.8,66.4,29.68,ESE,120,0.0,8.0,86,0.00,,SKC,0.00,VWS V14.01,2013-04-09 03:42:00,
2013-04-08 22:47:00,70.7,66.7,29.68,ESE,117,0.0,0.0,87,0.00,,SKC,0.00,VWS V14.01,2013-04-09 03:47:00,
2013-04-08 22:50:00,70.7,66.7,29.68,ESE,117,0.0,13.0,87,0.00,,SKC,0.00,VWS V14.01,2013-04-09 03:50:00,
2013-04-08 22:52:00,70.7,66.7,29.67,ESE,116,0.0,7.0,87,0.00,,SKC,0.00,VWS V14.01,2013-04-09 03:52:00,
2013-04-08 22:57:00,70.6,66.6,29.68,ESE,113,0.0,0.0,87,0.00,,SKC,0.00,VWS V14.01,2013-04-09 03:57:00,
2013-04-08 23:00:00,70.6,66.6,29.67,ESE,108,0.0,8.0,87,0.00,,SKC,0.00,VWS V14.01,2013-04-09 04:00:00,
2013-04-08 23:05:00,70.6,66.9,29.67,ESE,115,4.0,10.0,88,0.00,,SKC,0.00,VWS V14.01,2013-04-09 04:05:00,
2013-04-08 23:10:00,70.6,66.9,29.68,ESE,116,0.0,8.0,88,0.00,,SKC,0.00,VWS V14.01,2013-04-09 04:10:00,
2013-04-08 23:15:00,70.6,66.9,29.68,ESE,115,0.0,8.0,88,0.00,,SKC,0.00,VWS V14.01,2013-04-09 04:15:00,
2013-04-08 23:20:00,70.6,66.9,29.68,ESE,116,0.0,8.0,88,0.00,,SKC,0.00,VWS V14.01,2013-04-09 04:20:00,
2013-04-08 23:25:00,70.6,66.9,29.68,ESE,116,7.0,10.0,88,0.00,,SKC,0.00,VWS V14.01,2013-04-09 04:25:00,
2013-04-08 23:30:00,70.7,67.0,29.68,ESE,118,1.0,8.0,88,0.00,,SKC,0.00,VWS V14.01,2013-04-09 04:30:00,
2013-04-08 23:35:00,70.7,67.0,29.68,ESE,116,0.0,8.0,88,0.00,,SKC,0.00,VWS V14.01,2013-04-09 04:35:00,
2013-04-08 23:40:00,70.7,67.0,29.68,ESE,119,3.0,10.0,88,0.00,,SKC,0.00,VWS V14.01,2013-04-09 04:40:00,
2013-04-08 23:45:00,70.7,67.0,29.68,ESE,119,0.0,10.0,88,0.00,,SKC,0.00,VWS V14.01,2013-04-09 04:45:00,
2013-04-08 23:50:00,70.7,67.3,29.68,ESE,119,0.0,2.0,89,0.00,,SKC,0.00,VWS V14.01,2013-04-09 04:50:00,
2013-04-08 23:55:00,70.7,67.3,29.68,ESE,118,0.0,8.0,89,0.00,,SKC,0.00,VWS V14.01,2013-04-09 04:55:00,